MSC295 HEGN-HECA

Flight info

Callsign MSC295
Flight time 0h 42m
Altitude 30000
Route HGD V603 GIDID T91 EMOVA L677 CVO
Aircraft A320/M-SDE3FGHIRWY/LB1

Departure

Time 2026-05-07 21:38
Airport Hurghada International Airport (HEGN)

Arrival

Time 2026-05-07 22:20
Airport Cairo International Airport (HECA)
Time Latitude Longitude Altitude Speed Heading
2026-05-07 21:13 27.18802 33.80267 58 ft 0 kts 75°
2026-05-07 21:24 27.18801 33.80267 58 ft 0 kts 75°
2026-05-07 21:27 27.18795 33.80241 53 ft 4 kts 77°
2026-05-07 21:27 27.18790 33.80211 54 ft 4 kts 83°
2026-05-07 21:28 27.18789 33.80181 55 ft 4 kts 102°
2026-05-07 21:28 27.18799 33.80160 50 ft 2 kts 164°
2026-05-07 21:28 27.18800 33.80159 51 ft 0 kts 165°
2026-05-07 21:29 27.18801 33.80159 51 ft 0 kts 165°
2026-05-07 21:30 27.18776 33.80167 51 ft 9 kts 165°
2026-05-07 21:30 27.18711 33.80185 52 ft 9 kts 165°
2026-05-07 21:30 27.18650 33.80203 53 ft 9 kts 165°
2026-05-07 21:30 27.18593 33.80209 54 ft 10 kts 208°
2026-05-07 21:31 27.18565 33.80121 50 ft 16 kts 256°
2026-05-07 21:31 27.18474 33.80089 50 ft 16 kts 164°
2026-05-07 21:31 27.18358 33.80123 52 ft 20 kts 165°
2026-05-07 21:31 27.18232 33.80161 53 ft 18 kts 166°
2026-05-07 21:32 27.18116 33.80194 53 ft 18 kts 165°
2026-05-07 21:32 27.17989 33.80232 54 ft 20 kts 164°
2026-05-07 21:32 27.17856 33.80272 53 ft 19 kts 165°
2026-05-07 21:32 27.17733 33.80308 55 ft 18 kts 166°
2026-05-07 21:33 27.17608 33.80344 54 ft 18 kts 166°
2026-05-07 21:33 27.17485 33.80381 52 ft 18 kts 166°
2026-05-07 21:33 27.17417 33.80289 51 ft 18 kts 256°
2026-05-07 21:33 27.17386 33.80158 51 ft 18 kts 254°
2026-05-07 21:34 27.17348 33.79999 55 ft 24 kts 255°
2026-05-07 21:34 27.17302 33.79809 66 ft 25 kts 254°
2026-05-07 21:34 27.17264 33.79648 92 ft 17 kts 255°
2026-05-07 21:34 27.17236 33.79534 102 ft 15 kts 250°
2026-05-07 21:35 27.17156 33.79513 104 ft 14 kts 165°
2026-05-07 21:35 27.17043 33.79545 106 ft 19 kts 165°
2026-05-07 21:35 27.16917 33.79583 108 ft 18 kts 165°
2026-05-07 21:35 27.16788 33.79621 105 ft 22 kts 165°
2026-05-07 21:36 27.16629 33.79668 108 ft 23 kts 165°
2026-05-07 21:36 27.16486 33.79710 110 ft 20 kts 165°
2026-05-07 21:36 27.16379 33.79694 113 ft 15 kts 249°
2026-05-07 21:36 27.16355 33.79577 113 ft 16 kts 278°
2026-05-07 21:37 27.16447 33.79525 114 ft 17 kts 345°
2026-05-07 21:37 27.16668 33.79457 111 ft 62 kts 345°
2026-05-07 21:37 27.17307 33.79267 103 ft 126 kts 345°
2026-05-07 21:37 27.18324 33.78977 206 ft 165 kts 339°
2026-05-07 21:38 27.19416 33.78672 905 ft 161 kts 339°
2026-05-07 21:38 27.20511 33.78430 1715 ft 161 kts 348°
2026-05-07 21:38 27.21660 33.78265 2224 ft 176 kts 349°
2026-05-07 21:38 27.22966 33.78084 2557 ft 201 kts 350°
2026-05-07 21:39 27.24437 33.77882 2997 ft 226 kts 351°
2026-05-07 21:39 27.26070 33.77663 3539 ft 244 kts 352°
2026-05-07 21:39 27.27788 33.77434 4336 ft 253 kts 353°
2026-05-07 21:39 27.29569 33.77199 5123 ft 262 kts 354°
2026-05-07 21:40 27.31401 33.76960 5948 ft 268 kts 354°
2026-05-07 21:40 27.33271 33.76715 6771 ft 274 kts 354°
2026-05-07 21:40 27.35178 33.76463 7577 ft 277 kts 353°
2026-05-07 21:40 27.37103 33.76208 8415 ft 281 kts 353°
2026-05-07 21:41 27.39059 33.75946 9257 ft 284 kts 352°
2026-05-07 21:41 27.41034 33.75681 10078 ft 288 kts 352°
2026-05-07 21:41 27.43095 33.75405 10396 ft 311 kts 352°
2026-05-07 21:41 27.44585 33.75205 10544 ft 327 kts 352°
2026-05-07 21:42 27.46899 33.74893 10960 ft 341 kts 352°
2026-05-07 21:42 27.49276 33.74575 11618 ft 346 kts 352°
2026-05-07 21:42 27.51689 33.74253 12341 ft 351 kts 352°
2026-05-07 21:42 27.54121 33.73926 13055 ft 355 kts 352°
2026-05-07 21:43 27.56592 33.73592 13761 ft 359 kts 351°
2026-05-07 21:43 27.59081 33.73256 14401 ft 362 kts 351°
2026-05-07 21:43 27.61593 33.72902 15063 ft 365 kts 351°
2026-05-07 21:43 27.64119 33.72519 15739 ft 367 kts 351°
2026-05-07 21:44 27.66654 33.72119 16418 ft 369 kts 350°
2026-05-07 21:44 27.69213 33.71709 17094 ft 372 kts 350°
2026-05-07 21:44 27.71784 33.71296 17768 ft 375 kts 351°
2026-05-07 21:44 27.74372 33.70889 18424 ft 377 kts 351°
2026-05-07 21:45 27.76979 33.70483 19022 ft 379 kts 351°
2026-05-07 21:45 27.79601 33.70074 19612 ft 382 kts 351°
2026-05-07 21:45 27.82240 33.69663 20205 ft 384 kts 351°
2026-05-07 21:45 27.84893 33.69250 20815 ft 386 kts 351°
2026-05-07 21:46 27.87563 33.68833 21414 ft 388 kts 351°
2026-05-07 21:46 27.90241 33.68413 21990 ft 390 kts 351°
2026-05-07 21:46 27.92945 33.67990 22529 ft 393 kts 351°
2026-05-07 21:46 27.95659 33.67567 23068 ft 395 kts 351°
2026-05-07 21:47 27.98393 33.67141 23588 ft 398 kts 351°
2026-05-07 21:47 28.01146 33.66714 24010 ft 400 kts 351°
2026-05-07 21:47 28.03905 33.66286 24434 ft 402 kts 351°
2026-05-07 21:47 28.06683 33.65854 24843 ft 404 kts 351°
2026-05-07 21:48 28.09480 33.65418 25226 ft 407 kts 351°
2026-05-07 21:48 28.12294 33.64977 25617 ft 409 kts 351°
2026-05-07 21:48 28.15119 33.64531 25991 ft 411 kts 351°
2026-05-07 21:48 28.18002 33.64077 26387 ft 414 kts 351°
2026-05-07 21:49 28.20828 33.63669 26743 ft 416 kts 355°
2026-05-07 21:49 28.23766 33.63684 27121 ft 420 kts
2026-05-07 21:49 28.26685 33.63957 27497 ft 421 kts
2026-05-07 21:49 28.29614 33.64223 27874 ft 423 kts
2026-05-07 21:50 28.32554 33.64485 28245 ft 425 kts
2026-05-07 21:50 28.35509 33.64743 28604 ft 426 kts
2026-05-07 21:50 28.38468 33.65001 28947 ft 428 kts
2026-05-07 21:50 28.41443 33.65266 29273 ft 429 kts
2026-05-07 21:51 28.44423 33.65533 29607 ft 431 kts
2026-05-07 21:51 28.47418 33.65680 29922 ft 431 kts 356°
2026-05-07 21:51 28.50379 33.65216 30188 ft 431 kts 346°
2026-05-07 21:51 28.53212 33.64103 30423 ft 432 kts 335°
2026-05-07 21:52 28.55814 33.62374 30622 ft 435 kts 324°
2026-05-07 21:52 28.58072 33.60082 30891 ft 437 kts 314°
2026-05-07 21:52 28.60001 33.57412 31207 ft 436 kts 310°
2026-05-07 21:52 28.61903 33.54728 31524 ft 435 kts 311°
2026-05-07 21:53 28.63808 33.52061 31845 ft 434 kts 311°
2026-05-07 21:53 28.65712 33.49397 31980 ft 431 kts 311°
2026-05-07 21:53 28.69438 33.44164 32002 ft 422 kts 311°
2026-05-07 21:54 28.73117 33.38966 32006 ft 421 kts 311°
2026-05-07 21:54 28.76788 33.33774 32012 ft 420 kts 311°
2026-05-07 21:55 28.80461 33.28586 32014 ft 420 kts 311°
2026-05-07 21:55 28.84122 33.23394 32024 ft 420 kts 311°
2026-05-07 21:56 28.87773 33.18190 32029 ft 420 kts 310°
2026-05-07 21:56 28.91428 33.12993 32042 ft 420 kts 310°
2026-05-07 21:57 28.95149 33.07703 32043 ft 434 kts 310°
2026-05-07 21:57 28.98998 33.02237 32052 ft 443 kts 310°
2026-05-07 21:58 29.02863 32.96712 32051 ft 445 kts 310°
2026-05-07 21:58 29.06725 32.91178 32063 ft 445 kts 310°
2026-05-07 21:59 29.10589 32.85646 32062 ft 445 kts 310°
2026-05-07 21:59 29.14455 32.80114 32072 ft 445 kts 310°
2026-05-07 22:00 29.18321 32.74588 32084 ft 445 kts 310°
2026-05-07 22:00 29.22183 32.69047 32093 ft 445 kts 310°
2026-05-07 22:01 29.26036 32.63501 32101 ft 445 kts 310°
2026-05-07 22:01 29.29883 32.57940 32106 ft 445 kts 310°
2026-05-07 22:02 29.31798 32.55160 31909 ft 445 kts 310°
2026-05-07 22:02 29.33701 32.52385 31363 ft 439 kts 310°
2026-05-07 22:02 29.35570 32.49654 30718 ft 432 kts 310°
2026-05-07 22:02 29.37410 32.46960 30075 ft 427 kts 309°
2026-05-07 22:03 29.39235 32.44290 29391 ft 423 kts 309°
2026-05-07 22:03 29.41040 32.41653 28773 ft 419 kts 309°
2026-05-07 22:03 29.42831 32.39034 28155 ft 415 kts 309°
2026-05-07 22:03 29.44602 32.36442 27552 ft 412 kts 309°
2026-05-07 22:04 29.46364 32.33865 26954 ft 409 kts 309°
2026-05-07 22:04 29.48115 32.31306 26368 ft 406 kts 309°
2026-05-07 22:04 29.49853 32.28768 25774 ft 403 kts 309°
2026-05-07 22:04 29.51583 32.26237 25189 ft 401 kts 309°
2026-05-07 22:05 29.53318 32.23694 24613 ft 399 kts 309°
2026-05-07 22:05 29.55024 32.21191 24060 ft 397 kts 309°
2026-05-07 22:05 29.56719 32.18704 23469 ft 394 kts 309°
2026-05-07 22:05 29.58402 32.16231 22921 ft 392 kts 309°
2026-05-07 22:06 29.60076 32.13771 22422 ft 389 kts 309°
2026-05-07 22:06 29.61738 32.11328 21936 ft 387 kts 309°
2026-05-07 22:06 29.63394 32.08894 21467 ft 385 kts 309°
2026-05-07 22:06 29.65035 32.06478 20995 ft 383 kts 309°
2026-05-07 22:07 29.66667 32.04073 20534 ft 380 kts 309°
2026-05-07 22:07 29.68283 32.01688 20032 ft 377 kts 308°
2026-05-07 22:07 29.69891 31.99321 19532 ft 374 kts 308°
2026-05-07 22:07 29.71488 31.96970 19032 ft 372 kts 308°
2026-05-07 22:08 29.73074 31.94630 18548 ft 370 kts 308°
2026-05-07 22:08 29.74648 31.92303 18017 ft 367 kts 308°
2026-05-07 22:08 29.76212 31.89989 17493 ft 365 kts 308°
2026-05-07 22:08 29.77764 31.87692 16985 ft 362 kts 308°
2026-05-07 22:09 29.79210 31.85336 16495 ft 360 kts 298°
2026-05-07 22:09 29.80027 31.82633 16022 ft 358 kts 286°
2026-05-07 22:09 29.80626 31.79849 15520 ft 357 kts 285°
2026-05-07 22:09 29.81203 31.77084 15042 ft 355 kts 285°
2026-05-07 22:10 29.81774 31.74332 14572 ft 352 kts 285°
2026-05-07 22:10 29.82336 31.71595 14106 ft 350 kts 285°
2026-05-07 22:10 29.82891 31.68874 13617 ft 348 kts 284°
2026-05-07 22:10 29.83440 31.66167 13136 ft 345 kts 285°
2026-05-07 22:11 29.83982 31.63485 12650 ft 342 kts 285°
2026-05-07 22:11 29.84517 31.60829 12162 ft 339 kts 285°
2026-05-07 22:11 29.85042 31.58194 11680 ft 336 kts 285°
2026-05-07 22:11 29.85562 31.55581 11192 ft 334 kts 285°
2026-05-07 22:12 29.86076 31.52998 10581 ft 328 kts 285°
2026-05-07 22:12 29.86581 31.50460 10297 ft 309 kts 285°
2026-05-07 22:12 29.87034 31.48162 10134 ft 289 kts 285°
2026-05-07 22:12 29.87472 31.45908 9658 ft 282 kts 285°
2026-05-07 22:13 29.87896 31.43720 9073 ft 279 kts 285°
2026-05-07 22:13 29.88313 31.41547 8456 ft 277 kts 285°
2026-05-07 22:13 29.88725 31.39394 7869 ft 274 kts 286°
2026-05-07 22:13 29.89282 31.37308 7263 ft 271 kts 294°
2026-05-07 22:14 29.89976 31.35295 6634 ft 270 kts 295°
2026-05-07 22:14 29.90685 31.33300 6006 ft 268 kts 296°
2026-05-07 22:14 29.91641 31.31502 5444 ft 263 kts 313°
2026-05-07 22:14 29.92432 31.30450 5172 ft 261 kts 314°
2026-05-07 22:15 29.93634 31.28898 4583 ft 260 kts 315°
2026-05-07 22:15 29.94832 31.27342 4146 ft 258 kts 315°
2026-05-07 22:15 29.96193 31.26070 3762 ft 248 kts 340°
2026-05-07 22:15 29.97806 31.25768 3640 ft 228 kts
2026-05-07 22:16 29.99294 31.26219 3462 ft 217 kts 27°
2026-05-07 22:16 30.00484 31.27226 3228 ft 212 kts 46°
2026-05-07 22:16 30.01443 31.28491 2966 ft 207 kts 48°
2026-05-07 22:16 30.02364 31.29718 2698 ft 196 kts 48°
2026-05-07 22:17 30.03230 31.30868 2447 ft 183 kts 48°
2026-05-07 22:17 30.04035 31.31936 2231 ft 168 kts 49°
2026-05-07 22:17 30.04769 31.32911 2014 ft 148 kts 48°
2026-05-07 22:17 30.05404 31.33755 1812 ft 133 kts 48°
2026-05-07 22:18 30.05996 31.34541 1639 ft 128 kts 47°
2026-05-07 22:18 30.07147 31.36069 1295 ft 126 kts 48°
2026-05-07 22:18 30.07712 31.36839 1116 ft 125 kts 49°
2026-05-07 22:19 30.08287 31.37595 935 ft 125 kts 47°
2026-05-07 22:19 30.08861 31.38349 757 ft 124 kts 48°
2026-05-07 22:19 30.09424 31.39100 590 ft 123 kts 47°
2026-05-07 22:19 30.09985 31.39851 440 ft 124 kts 47°
2026-05-07 22:20 30.10522 31.40559 378 ft 102 kts 49°
2026-05-07 22:20 30.10873 31.41026 372 ft 52 kts 49°
2026-05-07 22:20 30.11072 31.41284 375 ft 39 kts 48°
2026-05-07 22:20 30.11251 31.41509 373 ft 37 kts 39°
2026-05-07 22:21 30.11466 31.41622 375 ft 30 kts 17°
2026-05-07 22:21 30.11548 31.41530 375 ft 22 kts 226°
2026-05-07 22:21 30.11456 31.41405 375 ft 20 kts 228°
2026-05-07 22:21 30.11368 31.41290 375 ft 18 kts 229°
2026-05-07 22:22 30.11287 31.41182 375 ft 17 kts 229°
2026-05-07 22:22 30.11211 31.41081 375 ft 16 kts 230°
2026-05-07 22:22 30.11183 31.41043 375 ft 0 kts 229°
2026-05-07 22:24 30.11181 31.41040 375 ft 3 kts 229°
2026-05-07 22:24 30.11133 31.40978 375 ft 17 kts 229°
2026-05-07 22:24 30.11034 31.40847 375 ft 24 kts 229°
2026-05-07 22:24 30.10928 31.40704 375 ft 23 kts 229°
2026-05-07 22:25 30.10828 31.40573 374 ft 21 kts 229°
2026-05-07 22:25 30.10735 31.40448 374 ft 20 kts 229°
2026-05-07 22:25 30.10687 31.40326 374 ft 16 kts 294°
2026-05-07 22:25 30.10668 31.40202 374 ft 20 kts 227°
2026-05-07 22:26 30.10566 31.40068 374 ft 24 kts 229°
2026-05-07 22:26 30.10484 31.39919 374 ft 21 kts 276°
2026-05-07 22:26 30.10601 31.39838 374 ft 21 kts 345°
2026-05-07 22:26 30.10646 31.39715 374 ft 20 kts 255°
2026-05-07 22:27 30.10612 31.39566 374 ft 21 kts 255°
2026-05-07 22:27 30.10576 31.39410 374 ft 19 kts 255°
2026-05-07 22:27 30.10542 31.39266 374 ft 18 kts 255°
2026-05-07 22:27 30.10552 31.39143 374 ft 16 kts 325°
2026-05-07 22:28 30.10623 31.39173 374 ft 11 kts 75°
2026-05-07 22:28 30.10634 31.39219 374 ft 0 kts 75°